Find Starlink 33948

NORAD ID: 66147 Int'l Des: 2025-240 Owner: SPXS Country: US Constellation: starlink operational
LEOCIRCULAR

当前视图

正在加载3D地球...

About Starlink 33948

Starlink 33948 (NORAD 66147) is a starlink constellation satellite (v2 mini) launched Oct 25, 2025 by SPXS of US. It operates in LEO, CIRCULAR orbit with a mass of 575.00 kg.

即将过境

Passes for default location (London). Set your location on the main map for personalized predictions.

高度历史

Loading altitude history...

两行轨道根数

1 66147U 25240B 26264.89881978 .00013289 00000-0 40366-3 0 9990
2 66147 53.1588 228.9848 0001477 104.9220 255.1946 15.34405281 52118
Epoch: Sep 21, 2026 • Age: 9 hours

当前状态

高度 464.7 km
远地点 / 近地点 N/A
速度 7.63 km/s
星下点 -7.23°S, 41.51°W
发射日期 Oct 25, 2025
运行时间 0.9 years
类型 internet

技术详情

分类 Payload
质量 575.00 kg
干质量 530.00 kg
长度 0.30 m
跨度 29.00 m
形状 ? Box + pan
制造商 SPXS
平台类型 Starlink V2MO
阶段状态 In Orbit
所有者/国家 SPXS/US

Most Searched